Time,TemperatureF,DewpointF,PressureIn,WindDirection,WindDirectionDegrees,WindSpeedMPH,WindSpeedGustMPH,Humidity,HourlyPrecipIn,Conditions,Clouds,dailyrainin,SoftwareType,DateUTC
2013-01-20 00:04:00,34.0,23.0,29.60,NW,313,5.0,17.0,63,0.00,,,0.01,,2013-01-20 05:04:00,
2013-01-20 00:12:00,34.0,23.0,29.60,NW,313,5.0,17.0,63,0.00,,,0.01,,2013-01-20 05:12:00,
2013-01-20 00:22:00,31.0,19.0,29.62,NW,319,7.0,22.0,61,0.00,,,0.01,,2013-01-20 05:22:00,
2013-01-20 00:33:00,28.0,17.0,29.64,NW,323,12.0,21.0,62,0.00,,,0.01,,2013-01-20 05:33:00,
2013-01-20 00:43:00,28.0,17.0,29.64,NW,323,12.0,21.0,62,0.00,,,0.01,,2013-01-20 05:43:00,
2013-01-20 00:53:00,26.0,16.0,29.66,NE,51,9.0,20.0,64,0.00,,,0.01,,2013-01-20 05:53:00,
2013-01-20 01:02:00,25.0,16.0,29.68,NW,323,10.0,20.0,67,0.00,,,0.01,,2013-01-20 06:02:00,
2013-01-20 01:12:00,25.0,16.0,29.68,NW,323,10.0,20.0,67,0.00,,,0.01,,2013-01-20 06:12:00,
2013-01-20 01:22:00,25.0,19.0,29.69,NNE,26,10.0,15.0,76,0.00,,,0.01,,2013-01-20 06:22:00,
2013-01-20 01:33:00,23.0,17.0,29.71,NW,309,9.0,18.0,76,0.00,,,0.01,,2013-01-20 06:33:00,
2013-01-20 01:43:00,23.0,17.0,29.71,NW,309,9.0,18.0,76,0.00,,,0.01,,2013-01-20 06:43:00,
2013-01-20 01:52:00,23.0,16.0,29.73,NW,323,7.0,18.0,74,0.00,,,0.01,,2013-01-20 06:52:00,
2013-01-20 02:02:00,22.0,16.0,29.75,West,273,4.0,14.0,77,0.00,,,0.01,,2013-01-20 07:02:00,
2013-01-20 02:12:00,22.0,16.0,29.75,West,273,4.0,14.0,77,0.00,,,0.01,,2013-01-20 07:12:00,
2013-01-20 02:22:00,21.0,17.0,29.76,NW,306,6.0,14.0,83,0.00,,,0.01,,2013-01-20 07:22:00,
2013-01-20 02:32:00,21.0,17.0,29.78,WNW,300,5.0,15.0,83,0.00,,,0.01,,2013-01-20 07:32:00,
2013-01-20 02:42:00,21.0,17.0,29.78,WNW,300,5.0,15.0,83,0.00,,,0.01,,2013-01-20 07:42:00,
2013-01-20 02:52:00,20.0,16.0,29.79,NNW,346,4.0,15.0,84,0.00,,,0.01,,2013-01-20 07:52:00,
2013-01-20 03:02:00,19.0,15.0,29.81,NNW,340,3.0,13.0,85,0.00,,,0.01,,2013-01-20 08:02:00,
2013-01-20 03:12:00,19.0,15.0,29.81,NNW,340,3.0,13.0,85,0.00,,,0.01,,2013-01-20 08:12:00,
2013-01-20 03:22:00,19.0,14.0,29.84,NNW,337,4.0,16.0,81,0.00,,,0.01,,2013-01-20 08:22:00,
2013-01-20 03:32:00,18.0,11.0,29.86,WNW,296,7.0,19.0,72,0.00,,,0.01,,2013-01-20 08:32:00,
2013-01-20 03:42:00,18.0,11.0,29.86,WNW,296,7.0,19.0,72,0.00,,,0.01,,2013-01-20 08:42:00,
2013-01-20 03:52:00,18.0,10.0,29.87,NW,325,7.0,12.0,71,0.00,,,0.01,,2013-01-20 08:52:00,
2013-01-20 04:02:00,18.0,11.0,29.89,NW,321,2.0,17.0,74,0.00,,,0.01,,2013-01-20 09:02:00,
2013-01-20 04:12:00,18.0,11.0,29.89,NW,321,2.0,17.0,74,0.00,,,0.01,,2013-01-20 09:12:00,
2013-01-20 04:22:00,17.0,12.0,29.90,NW,325,3.0,16.0,79,0.00,,,0.01,,2013-01-20 09:22:00,
2013-01-20 04:33:00,17.0,10.0,29.92,NNW,339,3.0,12.0,75,0.00,,,0.01,,2013-01-20 09:33:00,
2013-01-20 04:42:00,17.0,10.0,29.92,NNW,339,3.0,12.0,75,0.00,,,0.01,,2013-01-20 09:42:00,
2013-01-20 04:52:00,16.0,11.0,29.92,West,259,4.0,14.0,80,0.00,,,0.01,,2013-01-20 09:52:00,
2013-01-20 05:02:00,15.0,11.0,29.93,NW,315,2.0,14.0,85,0.00,,,0.01,,2013-01-20 10:02:00,
2013-01-20 05:12:00,15.0,11.0,29.93,NW,315,2.0,14.0,85,0.00,,,0.01,,2013-01-20 10:12:00,
2013-01-20 05:22:00,15.0,12.0,29.94,NNE,12,3.0,11.0,87,0.00,,,0.01,,2013-01-20 10:22:00,
2013-01-20 05:32:00,14.0,10.0,29.96,NNW,331,10.0,12.0,85,0.00,,,0.01,,2013-01-20 10:32:00,
2013-01-20 05:42:00,14.0,10.0,29.96,NNW,331,10.0,12.0,85,0.00,,,0.01,,2013-01-20 10:42:00,
2013-01-20 05:52:00,14.0,10.0,29.97,WNW,287,1.0,10.0,84,0.00,,,0.01,,2013-01-20 10:52:00,
2013-01-20 06:02:00,14.0,10.0,29.98,NW,315,3.0,8.0,85,0.00,,,0.01,,2013-01-20 11:02:00,
2013-01-20 06:12:00,14.0,10.0,29.98,NW,315,3.0,8.0,85,0.00,,,0.01,,2013-01-20 11:12:00,
2013-01-20 06:22:00,14.0,10.0,29.99,NE,42,1.0,8.0,85,0.00,,,0.01,,2013-01-20 11:22:00,
2013-01-20 06:33:00,14.0,10.0,30.00,NE,36,4.0,8.0,82,0.00,,,0.01,,2013-01-20 11:33:00,
2013-01-20 06:43:00,14.0,10.0,30.00,NE,36,4.0,8.0,82,0.00,,,0.01,,2013-01-20 11:43:00,
2013-01-20 06:53:00,14.0,9.0,30.00,NNW,340,3.0,10.0,80,0.00,,,0.01,,2013-01-20 11:53:00,
2013-01-20 07:03:00,14.0,9.0,30.01,NNW,331,3.0,8.0,80,0.00,,,0.01,,2013-01-20 12:03:00,
2013-01-20 07:12:00,14.0,9.0,30.01,NNW,331,3.0,8.0,80,0.00,,,0.01,,2013-01-20 12:12:00,
2013-01-20 07:23:00,15.0,10.0,30.02,West,276,3.0,6.0,79,0.00,,,0.01,,2013-01-20 12:23:00,
2013-01-20 07:33:00,15.0,10.0,30.03,NW,306,4.0,10.0,79,0.00,,,0.01,,2013-01-20 12:33:00,
2013-01-20 07:43:00,15.0,10.0,30.03,NW,306,4.0,10.0,79,0.00,,,0.01,,2013-01-20 12:43:00,
2013-01-20 07:52:00,15.0,10.0,30.03,NW,306,4.0,10.0,79,0.00,,,0.01,,2013-01-20 12:52:00,
2013-01-20 08:03:00,15.0,10.0,30.03,NW,306,4.0,10.0,79,0.00,,,0.01,,2013-01-20 13:03:00,
2013-01-20 08:12:00,15.0,10.0,30.03,NW,306,4.0,10.0,79,0.00,,,0.01,,2013-01-20 13:12:00,